Temperature
21 20 20 20 20 20 19 19 19 19 19 19 18 18 18 18 18 18 18 17 17 17 17 17 17 17 17 17 17 17 17 17 17 17 16 16 16 15 15 15 15 15 15
20 20 20 20 20 19 19 19 19 19 18 18 18 18 18 18 18 18 18 17 17 17 17 17 17 17 17 17 17 17 17 17 16 16 16 16 16 15 15 15 14 14 14
20 20 20 19 19 19 19 19 19 19 19 18 18 18 18 18 17 17 17 17 17 17 17 17 17 17 17 17 17 17 16 16 16 16 16 16 15 15 15 15 14 14 14
19 19 19 19 19 19 19 19 19 19 18 18 18 18 18 18 17 17 17 17 17 17 17 17 17 17 17 17 17 17 16 16 16 16 16 16 15 15 15 14 14 14 14
19 19 19 19 19 18 18 18 18 18 18 18 18 18 17 17 17 17 17 17 17 17 17 17 16 16 17 17 16 16 16 16 16 16 16 15 15 15 14 14 14 14 13
19 19 19 18 18 18 18 18 18 18 18 18 18 17 17 17 17 17 17 17 16 16 16 16 16 16 17 17 17 16 16 16 15 15 15 15 15 15 14 14 14 14 13
18 18 18 18 18 18 17 18 18 18 18 18 18 18 17 17 17 17 17 17 16 16 16 16 16 16 16 16 16 16 16 16 16 15 15 15 14 14 14 14 14 13 13
18 18 18 18 17 17 17 17 17 17 17 17 17 17 17 17 17 17 17 16 16 16 16 16 16 16 16 16 16 16 16 16 15 15 15 15 14 14 14 14 13 13 13
18 18 17 17 17 17 17 17 17 17 17 17 17 17 16 17 17 17 16 16 16 16 16 16 15 15 16 16 16 15 15 15 15 15 15 15 14 14 14 13 13 13 13
17 17 17 17 17 17 16 16 16 16 16 16 16 16 16 16 16 16 16 16 15 15 15 15 15 15 15 15 15 15 15 15 15 15 15 14 14 14 14 13 13 13 13
16 16 16 16 16 16 16 16 16 16 16 15 15 16 15 16 16 16 15 15 15 15 15 15 15 15 15 15 14 14 14 14 14 14 14 14 13 13 13 13 13 13 13
16 16 16 16 16 16 15 15 15 15 15 15 15 15 15 15 15 15 15 15 15 14 14 14 14 14 14 14 14 14 14 14 13 13 13 13 13 13 13 12 12 12 12
15 15 15 15 15 15 15 15 15 15 15 15 15 15 15 15 15 15 15 14 14 14 14 14 14 14 14 14 13 14 13 13 13 13 13 13 12 12 12 12 12 12 12
15 15 15 15 15 15 15 15 15 15 15 15 15 15 15 15 15 14 14 14 14 14 13 13 13 13 13 13 13 13 12 12 12 12 12 12 12 12 12 12 11 11 11
14 14 14 14 15 14 14 14 14 14 15 14 14 14 14 14 14 14 14 13 13 13 13 13 13 12 12 12 12 12 12 12 12 11 12 12 12 11 11 11 11 11 11
14 14 14 14 14 14 14 14 14 14 14 14 14 13 13 13 13 13 13 13 13 12 12 12 12 12 12 12 12 12 11 11 11 11 11 11 11 11 11 11 11 11 11
14 14 14 14 14 14 14 14 14 14 13 13 13 13 13 13 13 13 13 12 12 12 11 11 11 12 12 12 11 11 11 11 10 11 11 11 11 11 11 11 11 11 11
13 13 13 13 13 13 13 13 13 13 13 13 13 13 12 12 12 12 12 12 11 11 11 11 11 11 11 11 11 11 11 10 10 10 10 10 10 11 11 11 11 10 10
13 13 13 13 13 13 13 13 13 13 13 12 12 12 12 12 12 12 11 11 11 11 11 11 11 11 11 11 10 10 10 10 10 10 10 10 10 10 10 10 10 10 10
12 12 12 12 12 12 12 12 12 12 12 12 12 11 11 11 11 11 11 11 10 11 11 11 10 10 10 10 10 10 10 10 10 10 10 10 10 10 10 9 10 10 10
12 12 12 12 12 12 12 12 12 12 11 11 11 11 11 11 11 11 10 10 10 10 10 10 10 10 10 9 9 9 9 9 9 9 9 9 9 9 9 9 9 9 9
11 12 12 12 12 12 11 11 11 11 11 11 11 11 10 10 10 10 10 10 10 10 10 10 10 9 9 9 9 9 9 9 9 9 9 9 9 9 9 9 9 9 9
11 11 11 11 11 11 11 11 11 11 11 10 10 10 10 10 10 9 9 9 9 9 9 9 9 9 9 9 9 9 9 9 9 8 8 8 8 8 8 8 8 9 9
11 11 11 11 11 11 11 11 11 10 10 10 10 10 10 9 9 9 9 9 9 9 9 9 9 8 8 8 8 8 8 8 8 8 8 8 8 8 8 8 8 8 8
11 11 11 11 11 10 10 10 10 10 10 10 10 9 9 9 9 9 9 9 9 9 8 8 8 8 8 8 8 8 8 8 8 8 8 8 7 8 8 8 8 8 8
10 10 10 10 10 10 10 10 10 10 10 9 9 9 9 9 9 9 9 9 9 8 8 8 8 8 8 8 8 8 8 8 8 8 7 7 7 7 7 7 7 7 8
Wind_Speed
11 11 10 10 9 9 8 8 8 7 7 7 7 7 7 7 7 7 8 7 8 7 7 7 7 7 5 5 5 6 6 6 6 4 2 3 4 4 4 4 5 4 5
10 10 10 9 8 9 8 8 8 8 8 8 7 7 7 8 7 8 9 8 8 8 8 8 8 7 7 6 5 6 6 6 6 6 4 4 4 5 5 5 4 4 4
9 9 9 9 8 8 8 8 8 8 7 7 7 7 7 7 8 8 8 8 8 8 8 8 8 8 8 6 7 6 6 6 6 6 5 4 3 4 5 5 5 4 4
8 8 8 8 8 8 7 7 7 7 7 7 7 7 7 7 8 8 8 8 8 8 8 8 9 9 8 8 7 7 6 6 6 7 6 5 4 4 5 5 5 5 4
7 7 7 7 7 7 6 6 6 7 7 7 7 7 7 7 7 7 7 8 8 8 8 8 8 8 7 7 7 7 7 6 6 7 6 5 5 4 5 5 5 4 4
7 7 6 6 6 6 6 6 6 7 7 7 7 7 7 6 3 5 7 8 8 8 8 8 8 8 7 8 7 6 7 8 8 7 6 6 6 6 5 5 5 4 4
7 7 7 7 7 6 6 6 6 6 6 6 6 6 7 6 5 7 8 9 9 8 8 8 7 7 7 8 7 8 8 8 8 9 8 7 6 6 6 6 5 5 4
7 6 6 6 6 6 5 5 5 5 5 5 6 6 6 6 6 8 8 10 10 9 9 8 8 7 6 6 7 8 8 8 8 9 8 7 6 5 6 7 6 6 5
6 6 6 6 6 6 5 5 4 4 5 5 6 6 7 6 6 7 8 8 8 9 8 8 8 8 6 6 7 8 8 7 6 6 5 4 3 4 5 5 6 6 5
5 6 5 6 6 5 5 5 5 5 5 6 5 6 6 6 4 6 7 7 7 7 7 7 7 7 6 7 8 8 8 7 6 6 6 6 7 7 7 7 6 6 5
5 5 5 5 6 6 5 5 5 5 5 6 5 5 6 6 5 6 7 6 7 7 6 6 5 7 8 9 9 8 8 7 7 7 7 7 7 7 7 7 6 6 6
4 4 4 4 5 4 5 5 5 5 6 7 6 6 6 6 5 5 6 7 7 7 7 6 4 6 8 9 8 7 6 7 7 6 6 7 7 6 6 6 6 6 4
3 4 3 4 4 4 5 6 6 6 6 6 6 7 6 5 5 8 8 8 8 7 6 4 3 5 7 8 8 8 8 7 6 6 6 6 5 5 5 5 6 5 5
4 3 4 4 4 4 4 5 5 6 6 6 7 7 6 5 5 5 5 5 7 6 5 4 6 8 7 6 6 7 7 6 6 6 6 5 5 5 6 6 6 6 5
4 4 4 4 4 4 5 4 6 5 5 6 6 6 7 7 4 3 4 5 5 3 3 4 4 4 5 5 5 5 5 6 6 6 6 5 5 5 5 6 6 6 6
4 4 4 5 4 5 5 5 3 5 4 5 6 7 6 5 4 4 5 5 6 5 4 5 6 6 6 6 6 5 5 5 5 5 5 5 6 6 6 6 6 7 6
5 5 5 6 6 6 6 6 5 4 6 8 8 8 8 7 6 6 6 6 7 7 6 6 6 6 6 6 5 5 6 6 6 5 5 6 6 6 6 6 7 7 6
6 6 7 7 7 7 7 7 6 6 6 5 6 8 9 9 9 8 7 5 6 6 7 6 6 6 6 5 5 5 6 5 6 6 6 6 7 7 7 7 7 7 6
6 6 6 6 7 7 7 7 7 7 7 6 5 4 6 8 9 9 8 6 7 7 7 6 6 6 5 5 5 5 5 6 6 6 6 7 7 7 7 6 6 6 7
6 5 6 7 7 7 6 6 6 6 6 5 5 5 5 5 5 5 6 6 7 7 6 6 5 5 5 5 5 5 6 5 5 6 6 6 6 6 6 7 6 6 6
6 5 6 7 7 7 6 6 6 6 6 5 6 5 5 6 6 6 6 6 6 6 6 5 5 6 5 5 5 6 6 6 5 5 5 5 5 5 5 5 5 6 6
5 5 6 6 6 6 6 6 6 6 6 6 5 4 5 6 5 6 5 5 5 5 5 6 6 5 5 6 6 6 6 5 5 5 5 5 5 5 5 5 6 6 6
6 6 6 6 5 5 6 6 6 5 5 5 5 4 4 5 5 5 5 5 4 5 5 5 6 6 6 6 6 6 6 6 5 5 5 5 5 5 6 6 8 8 7
5 6 5 5 4 4 5 5 5 5 5 5 4 5 4 4 4 5 5 5 5 5 5 5 6 7 8 7 6 6 6 5 6 6 7 6 6 6 5 6 7 7 7
4 4 4 4 4 4 4 4 4 4 4 4 4 4 4 4 4 4 4 5 5 5 6 6 5 6 9 9 8 6 3 3 4 5 6 7 7 7 6 7 6 7 7
3 3 3 3 3 3 3 3 3 3 3 3 3 4 4 4 4 4 4 4 5 5 5 6 7 7 8 7 7 5 5 5 5 6 7 7 7 7 7 7 8 7 7
Wind_Direction
197 197 201 202 204 208 213 216 218 220 217 222 225 227 231 235 236 236 241 237 236 237 237 232 233 243 241 238 235 236 237 241 248 254 237 194 200 220 194 192 186 188 150
192 193 197 198 202 208 211 214 214 215 217 221 227 227 232 234 234 235 239 239 237 237 236 234 234 228 230 243 241 238 236 235 240 245 243 222 209 209 210 216 207 200 175
185 187 190 195 201 211 217 216 214 215 218 222 228 228 233 236 235 236 239 241 240 240 239 236 233 229 228 232 238 239 234 227 231 239 241 232 222 209 208 216 216 220 206
179 185 188 196 201 209 213 215 217 218 218 222 228 230 233 237 239 239 239 242 242 242 240 238 235 232 230 231 231 234 235 232 228 237 238 225 219 212 217 219 217 213 225
171 177 183 189 196 203 208 213 217 224 223 222 226 228 233 236 236 236 240 239 241 241 240 238 237 234 238 239 241 232 230 232 231 232 233 228 225 214 221 227 228 219 214
171 175 175 181 187 194 205 211 216 224 229 225 226 230 235 241 225 231 243 244 242 242 243 241 237 228 227 227 243 246 240 234 237 239 236 233 229 226 223 230 227 221 218
177 179 179 183 188 194 205 206 213 218 225 225 226 231 239 241 224 226 238 245 245 243 242 240 242 234 220 229 225 227 235 243 246 247 248 245 235 225 224 223 221 228 235
180 182 180 188 192 193 199 206 212 216 223 229 235 237 242 242 223 225 229 238 244 243 239 236 237 238 225 223 225 226 231 233 234 237 245 244 244 237 225 226 222 217 218
185 186 188 191 195 197 202 210 217 222 227 232 233 237 242 242 226 224 229 239 238 238 236 235 235 232 212 211 222 225 228 232 219 218 238 232 229 220 229 226 215 214 217
196 194 194 193 197 201 207 214 220 226 231 237 238 239 243 248 223 217 226 239 238 238 236 233 226 231 210 202 222 224 226 229 223 207 210 210 209 201 208 224 223 222 222
200 193 195 198 199 206 214 219 221 231 239 246 246 243 240 243 225 210 222 240 245 243 239 236 227 199 207 210 225 228 228 228 220 213 207 209 210 208 209 212 227 233 230
210 207 199 212 220 209 213 226 228 232 236 239 239 248 245 234 225 209 210 232 258 250 248 247 233 185 207 215 223 230 222 222 222 217 217 214 210 209 205 206 214 229 237
214 219 214 216 231 229 227 229 227 226 239 246 247 251 252 244 219 191 204 218 230 243 256 273 262 211 213 218 221 220 218 221 220 219 222 224 218 208 200 192 193 205 213
222 225 224 226 231 233 238 237 238 238 242 248 253 257 260 255 248 226 220 218 216 232 250 237 212 214 222 225 214 214 224 225 223 223 223 225 218 204 204 201 200 199 204
237 242 242 244 243 243 243 250 249 256 253 255 264 270 269 266 271 284 248 246 249 247 257 253 247 230 226 225 222 217 218 218 223 231 229 219 215 213 210 205 207 208 211
247 248 255 257 252 250 251 258 238 235 210 218 237 256 273 273 270 264 246 238 234 229 234 239 238 235 231 229 226 218 217 219 223 227 225 222 219 212 211 209 210 214 214
258 260 260 260 258 258 259 260 268 249 216 216 216 220 230 243 247 244 237 235 228 208 225 238 239 237 235 231 228 225 222 217 215 219 220 220 222 218 214 214 214 217 218
263 259 257 258 258 258 258 260 263 265 267 266 238 213 213 218 225 230 229 229 233 219 234 237 239 240 237 231 228 227 226 220 216 218 218 219 219 219 216 217 216 217 219
268 266 266 267 265 265 264 265 265 265 268 272 276 258 209 215 217 225 218 231 240 237 235 236 237 239 236 231 230 229 230 229 223 221 218 216 217 217 216 216 217 201 220
262 257 262 268 268 264 260 260 262 262 265 268 265 265 259 253 253 239 229 239 243 242 238 236 237 240 234 231 232 231 230 229 225 226 222 218 216 216 216 216 219 218 221
275 264 243 259 263 260 257 254 255 257 262 269 269 266 260 260 263 258 249 243 244 244 240 238 234 232 231 227 229 229 230 227 224 226 227 227 223 219 219 219 220 225 228
274 274 269 264 262 259 255 251 252 254 254 257 262 252 231 250 262 260 253 246 244 242 238 234 234 231 230 231 231 231 231 228 225 226 229 229 226 224 222 220 221 223 225
273 272 271 270 266 253 251 253 252 252 250 251 258 261 252 258 260 260 259 256 252 246 238 234 236 233 230 230 231 228 230 230 228 222 224 224 224 222 219 220 221 221 219
280 275 274 274 271 267 263 261 256 252 251 251 254 261 260 257 258 257 256 253 246 241 237 234 234 232 230 230 230 228 226 227 230 225 225 225 223 223 222 222 224 221 218
285 286 285 281 274 270 269 268 266 262 258 253 252 257 260 256 253 252 252 252 249 245 241 239 236 233 231 229 228 226 187 181 223 234 225 226 226 224 224 225 224 222 219
295 298 298 298 291 283 274 270 268 267 267 261 250 247 253 253 249 248 249 250 249 244 241 237 233 233 233 230 222 201 175 180 196 224 234 230 228 227 226 227 227 224 222
Height
1504 1506 1508 1510 1512 1514 1515 1517 1518 1519 1520 1522 1523 1523 1524 1525 1525 1526 1526 1526 1527 1527 1527 1527 1527 1528 1528 1529 1529 1529 1529 1529 1529 1529 1529 1528 1527 1527 1527 1527 1527 1527 1526
1499 1501 1504 1506 1508 1511 1512 1513 1514 1515 1516 1518 1520 1520 1521 1522 1522 1522 1522 1523 1523 1523 1523 1523 1523 1524 1524 1525 1525 1525 1525 1525 1526 1525 1525 1525 1524 1524 1524 1525 1525 1525 1524
1495 1497 1499 1501 1504 1506 1508 1509 1511 1512 1513 1514 1516 1516 1517 1518 1518 1519 1519 1519 1519 1519 1519 1519 1519 1520 1520 1521 1521 1522 1522 1522 1522 1522 1522 1522 1522 1521 1521 1522 1522 1522 1522
1491 1493 1495 1497 1500 1503 1504 1505 1507 1508 1509 1510 1511 1512 1512 1513 1514 1515 1515 1515 1515 1515 1515 1515 1515 1516 1516 1517 1517 1517 1518 1518 1518 1519 1519 1518 1518 1518 1518 1519 1519 1519 1519
1488 1490 1492 1494 1497 1499 1500 1501 1502 1504 1505 1506 1507 1507 1508 1509 1510 1510 1511 1511 1511 1511 1510 1511 1511 1512 1512 1513 1513 1513 1514 1514 1515 1515 1515 1515 1514 1514 1515 1515 1516 1516 1515
1485 1487 1488 1491 1493 1495 1497 1498 1499 1500 1501 1502 1503 1503 1504 1505 1506 1506 1506 1506 1506 1506 1506 1506 1507 1507 1507 1508 1508 1509 1509 1510 1510 1510 1511 1511 1510 1510 1511 1511 1512 1512 1512
1481 1483 1485 1487 1489 1491 1493 1494 1495 1496 1497 1498 1498 1499 1499 1500 1501 1501 1501 1502 1502 1502 1502 1502 1502 1503 1503 1503 1503 1504 1504 1504 1505 1505 1506 1506 1506 1506 1506 1507 1508 1508 1509
1479 1480 1482 1484 1485 1487 1489 1490 1492 1493 1493 1493 1494 1495 1495 1495 1496 1496 1497 1497 1497 1497 1497 1497 1497 1498 1498 1498 1498 1499 1499 1499 1500 1500 1500 1501 1501 1502 1502 1503 1504 1504 1505
1476 1477 1479 1481 1482 1484 1485 1486 1488 1489 1489 1490 1490 1490 1490 1490 1491 1492 1492 1492 1492 1492 1492 1492 1492 1493 1493 1493 1493 1493 1494 1494 1495 1495 1495 1496 1496 1497 1498 1499 1500 1501 1501
1473 1475 1476 1477 1479 1480 1482 1483 1484 1485 1485 1486 1486 1486 1486 1486 1486 1486 1486 1487 1487 1487 1487 1487 1487 1487 1488 1488 1488 1488 1488 1488 1489 1490 1490 1491 1492 1492 1493 1494 1496 1497 1498
1471 1472 1473 1474 1475 1477 1479 1479 1480 1481 1482 1482 1482 1482 1482 1482 1481 1481 1482 1482 1482 1482 1482 1482 1482 1482 1482 1482 1483 1483 1483 1484 1484 1485 1485 1486 1487 1488 1489 1490 1491 1493 1494
1467 1468 1469 1471 1472 1474 1475 1475 1476 1476 1477 1478 1478 1477 1478 1477 1477 1476 1477 1477 1477 1477 1477 1477 1477 1476 1476 1477 1477 1477 1478 1479 1480 1481 1481 1482 1483 1483 1484 1485 1486 1488 1489
1464 1464 1465 1467 1468 1470 1471 1472 1472 1472 1473 1474 1474 1474 1474 1473 1472 1472 1472 1472 1472 1472 1472 1471 1471 1471 1471 1471 1471 1472 1473 1474 1475 1476 1476 1477 1478 1479 1479 1480 1481 1482 1484
1461 1461 1462 1463 1464 1466 1467 1467 1468 1468 1469 1469 1469 1469 1469 1468 1468 1467 1467 1467 1467 1467 1467 1466 1466 1466 1466 1466 1466 1467 1468 1468 1469 1470 1472 1473 1474 1474 1475 1477 1478 1479 1480
1457 1458 1459 1460 1461 1461 1462 1462 1463 1463 1463 1463 1464 1464 1464 1464 1464 1463 1462 1462 1463 1462 1461 1461 1461 1462 1461 1461 1462 1462 1462 1464 1464 1466 1467 1468 1469 1470 1471 1472 1473 1475 1476
1454 1454 1456 1457 1457 1458 1458 1458 1457 1457 1457 1457 1457 1458 1457 1458 1457 1457 1457 1456 1456 1457 1456 1455 1456 1456 1456 1456 1457 1457 1458 1459 1459 1461 1462 1463 1464 1465 1466 1468 1469 1470 1471
1451 1451 1452 1453 1453 1453 1453 1452 1452 1452 1452 1452 1452 1451 1451 1451 1451 1451 1451 1451 1451 1451 1451 1450 1451 1451 1451 1452 1452 1452 1453 1453 1454 1455 1456 1457 1458 1460 1462 1463 1464 1466 1467
1447 1447 1448 1448 1448 1448 1448 1448 1447 1447 1447 1447 1447 1446 1445 1445 1445 1445 1445 1445 1445 1445 1445 1445 1445 1446 1446 1446 1447 1447 1448 1449 1449 1450 1451 1452 1453 1455 1457 1458 1459 1460 1461
1444 1444 1443 1443 1443 1443 1442 1442 1442 1442 1441 1441 1441 1440 1440 1439 1439 1439 1439 1438 1439 1439 1440 1440 1441 1441 1441 1442 1442 1443 1444 1444 1444 1445 1446 1447 1449 1450 1451 1453 1455 1455 1457
1439 1439 1438 1438 1438 1438 1437 1437 1436 1436 1436 1435 1435 1434 1434 1434 1433 1433 1433 1433 1433 1434 1435 1435 1436 1436 1436 1437 1437 1438 1439 1440 1440 1441 1442 1443 1444 1445 1446 1448 1449 1451 1452
1435 1434 1433 1433 1433 1432 1431 1431 1431 1431 1431 1430 1430 1429 1429 1429 1429 1428 1428 1428 1428 1429 1429 1430 1431 1431 1432 1432 1433 1434 1434 1435 1436 1437 1437 1439 1439 1440 1442 1443 1444 1446 1448
1430 1429 1429 1428 1427 1427 1426 1426 1426 1426 1425 1425 1425 1425 1425 1425 1424 1424 1424 1423 1424 1424 1425 1425 1426 1426 1427 1428 1429 1430 1430 1431 1432 1433 1433 1434 1435 1436 1438 1439 1440 1442 1443
1426 1425 1424 1423 1422 1421 1421 1421 1421 1421 1420 1420 1420 1420 1420 1420 1420 1420 1420 1419 1419 1419 1420 1420 1421 1422 1423 1424 1424 1425 1426 1426 1427 1428 1429 1431 1432 1433 1434 1435 1437 1438 1439
1422 1421 1420 1419 1418 1417 1417 1416 1416 1416 1416 1416 1416 1416 1416 1416 1415 1415 1415 1415 1415 1415 1415 1416 1416 1417 1418 1418 1419 1420 1421 1422 1423 1424 1425 1427 1428 1429 1430 1431 1433 1434 1435
1419 1417 1416 1415 1415 1414 1413 1413 1412 1412 1412 1412 1412 1412 1411 1411 1411 1411 1411 1411 1411 1411 1411 1411 1411 1412 1412 1413 1414 1415 1416 1417 1418 1420 1421 1422 1423 1424 1425 1427 1428 1430 1431
1416 1415 1414 1413 1412 1411 1410 1410 1409 1408 1408 1408 1408 1408 1407 1407 1407 1407 1407 1406 1406 1406 1406 1406 1406 1406 1407 1408 1408 1409 1410 1412 1413 1415 1416 1417 1418 1420 1421 1423 1424 1426 1427